Location: Campillo
(40.8621°N, 4.2488°W)
Time: 12:49:05
(UTC+00:00)

Meteor 1-25 Rocket - Pass Details

Date: 11 May 2021
Orbit: 838 x 890 km, 81.2° (Epoch: 13 June)

Event Time Altitude Azimuth Distance (km) Brightness Sun altitude
Rises 20:41:10 0° 350° (N) 3,504 8.2 -13.2°
Reaches altitude 10° 20:43:37 10° 350° (N) 2,563 7.4 -13.6°
Maximum altitude 20:49:29 89° 261° (W) 896 4.3 -14.4°
Enters shadow 20:54:47 13° 173° (S) 2,349 6.1 -15.2°
